Back to catalog

FENGYUN 1C DEB

AliveSSO
NORAD 36153·DEBRIS·🇨🇳 China

Launched May 10, 1999 from Taiyuan Satellite Launch Center

Loading…

Next Passes (next 24 hours)

TLE

AgingSource: Space-Track

Epoch: Sep 8, 2026, 12:32 UTC

1 36153U 99025DSA 26251.52265159  .00004715  00000-0  11386-2 0  9992
2 36153  98.5923 352.7116 0028453 307.8374  52.0247 14.53378407688784

Track FENGYUN 1C DEB in real time with AllMySat

Download on the App Store